Location: ????????
(38.4362°N, 22.8767°E)
Time: 12:14:11
(UTC+00:00)

ADEOS II - Pass Details

Date: 23 April 2024
Orbit: 796 x 799 km, 98.7° (Epoch: 18 May)

Event Time Altitude Azimuth Distance (km) Brightness Sun altitude
Rises 01:39:51 0° 1° (N) 3,309 5.9 -21.9°
Reaches altitude 10° 01:42:26 10° 351° (N) 2,374 4.9 -21.5°
Maximum altitude 01:46:52 29° 293° (WNW) 1,431 3.1 -20.8°
Enters shadow 01:47:21 28° 283° (WNW) 1,445 3.1 -20.7°
